Location: Chavannes
(47.1090°N, 0.2226°W)
Time: 05:03:51
(UTC+00:00)

ATLAS 5 CENTAUR R/B - Pass Details

Date: 16 October 2021
Orbit: 497 x 1159 km, 63.4° (Epoch: 25 November)

Event Time Altitude Azimuth Distance (km) Brightness Sun altitude
Rises 20:23:59 0° 252° (WSW) 2,635 5.4 -32.9°
Reaches altitude 10° 20:26:16 10° 265° (W) 1,800 4.6 -33.3°
Enters shadow 20:27:39 18° 280° (W) 1,387 4.0 -33.5°
